Regional Weather Roundup
Issued by NWS Midland/Odessa, TX

Skip options and go directly to product.
Home | Oldest Version | Next Version | Current Version | All | Text Only | Save Text | Print | Product List | Glossary On

Skip product version selection by date and time.   
103
ASUS44 KMAF 040301
RWRMAF
MIDLAND AREA WEATHER ROUNDUP
NATIONAL WEATHER SERVICE MIDLAND TX
900 PM CST TUE MAR 03 2015

...IN SOUTHWEST TEXAS AND SOUTHEAST NEW MEXICO...

CITY           SKY/WX    TMP DP  RH WIND       PRES   REMARKS
ALPINE         CLOUDY    55  44  67 E9        29.96R
ANDREWS        CLOUDY    52  47  83 S3        29.87R
ARTESIA        CLOUDY    52  46  82 SW7       29.84S
BIG SPRING     MOCLDY    53  49  85 E5        29.87R
CARLSBAD       CLOUDY    54  44  69 S6        29.84R
DRYDEN           N/A     56  49  77 N6        29.84R
FORT STOCKTON  CLOUDY    56  47  71 SW6       29.86R
GUAD PASS      NOT AVBL
HOBBS          CLOUDY    54  50  87 SE3       29.87R
MARFA          CLOUDY    55  45  67 E3        29.92R
MIDLAND AIRPK  CLOUDY    53  47  81 CALM      29.85R
MIDLAND INTL   CLOUDY    52  47  83 N6        29.84R
ODESSA         CLOUDY    52  46  80 NE6       29.86R
PECOS          CLOUDY    58  45  61 CALM      29.84R
PRESIDIO       FAIR      71  43  37 N9        29.78R
SEMINOLE       CLOUDY    53  44  72 SE6       29.87R
SNYDER         CLOUDY    50  47  88 NW6       29.84S
WINK           CLOUDY    58  46  64 E5        29.84R
$$
...OTHER STATIONS IN TEXAS...

CITY           SKY/WX    TMP DP  RH WIND       PRES   REMARKS
ABILENE        CLOUDY    54  49  83 CALM      29.83R
AMARILLO       MOCLDY    45  39  79 E12       29.82R WCI  39
AUSTIN         MOCLDY    57  57 100 S5        29.87S FOG
BROWNSVILLE    MOCLDY    69  68  96 SE14      29.83S
CORPUS CHRISTI CLOUDY    68  67  96 S23       29.83R FOG
DALLAS FTW     CLOUDY    52  51  97 CALM      29.87R
DEL RIO        CLOUDY    57  51  80 SE8       29.83R
EL PASO        LGT RAIN  56  45  66 S17       29.87R
HOUSTON INT    MOCLDY    70  66  87 S9        29.91R
LUBBOCK        CLOUDY    53  42  66 S7        29.84R
SAN ANGELO     MOCLDY    58  51  78 NE3       29.83R
SAN ANTONIO    DRZL/FOG  59  57  93 CALM      29.88R VSB 1/4
WACO           CLOUDY    51  51 100 CALM      29.87R FOG
WICHITA FALLS  NOT AVBL
$$
...OTHER LOCATIONS IN NEW MEXICO...

CITY           SKY/WX    TMP DP  RH WIND       PRES   REMARKS
ALAMAGORDO     MOCLDY    52  41  66 S12       29.85S
ALBUQUERQUE    PTCLDY    49  17  28 NW13      29.82R
CANNON AFB     PTCLDY    48  42  80 S13       29.80S
CLOVIS         PTCLDY    45  39  81 S10       29.81S WCI  39
HOLLOMAN AFB   MOCLDY    51  43  74 SW9       29.84R
ROSWELL        MOCLDY    50  44  80 S8        29.82R
RUIDOSO        MOCLDY    41  32  70 SW24G31   29.87R WCI  31
SANTA FE       CLEAR     36  20  52 NW7       29.82R WCI  30
TRUTH OR CONSE CLEAR     47  24  40 W6        29.83R
TUCUMCARI      PTCLDY    48  41  76 W6        29.76R
$$

USA.gov is the U.S. government's official web portal to all federal, state and local government web resources and services.